Flag for U.S.A. Weather past 2 weeks in Paradise, Nevada, U.S.A.

Now
75 °F

Passing clouds.


Feels Like: 77 °F
Forecast: 60 / 78 °F
Wind: 12 mph from South

Location: McCarran International Airport

Current Time: Oct 26, 2014 at 12:05:59 AM

Latest Report: Oct 25, 2014 at 10:56 PM


Visibility: 10 mi

Pressure: 29.84 "Hg

Humidity: 28%

Dew point: 40 °F

Location of ParadiseLocation

Historic Weather in Paradise — Graph

°F

Paradise temperature yesterday

Maximum temperature yesterday: 87 °F (at 2:56 PM)
Minimum temperature yesterday: 64 °F (at 6:56 AM)
Average temperature yesterday: 76 °F

Past Weeks' High & Low Weather Summary

 TemperatureHumidityPressure
High91 °F (Oct 11, 3:56 PM)40% (Oct 25, 6:56 AM)30.12 "Hg (Oct 25, 6:56 AM)
Low61 °F (Oct 13, 5:56 AM)6% (Oct 12, 4:56 PM)29.70 "Hg (Oct 21, 2:56 PM)
Average75 °F22%29.86 "Hg
* Reported Oct 10 10:56 PM — Oct 25 10:56 PM, Paradise, Weather by CustomWeather, © 2014

Note: Actual official high and low records may vary slightly from our data, if they occured in-between our weather recording intervals... More about our weather records

Advertising

Paradise weather history for previous 24 hours

 ConditionsComfort  
Time TempWeatherWind HumidityBarometerVisibility
10:56 PM
Oct 25
75 °FPassing clouds.12 mph28%29.84 "Hg10 mi
9:56 PM76 °FPassing clouds.14 mph27%29.84 "Hg10 mi
8:56 PM77 °FPassing clouds.9 mph26%29.84 "Hg10 mi
7:56 PM80 °FPassing clouds.8 mph24%29.84 "Hg10 mi
6:56 PM80 °FPassing clouds.10 mph25%29.85 "Hg10 mi
5:56 PM82 °FPassing clouds.13 mph22%29.84 "Hg10 mi
4:56 PM84 °FPassing clouds.16 mph19%29.84 "Hg10 mi
3:56 PM86 °FScattered clouds.21 mph19%29.85 "Hg10 mi
2:56 PM87 °FScattered clouds.18 mph20%29.86 "Hg10 mi
1:56 PM86 °FScattered clouds.15 mph20%29.88 "Hg10 mi
12:56 PM84 °FScattered clouds.15 mph21%29.91 "Hg10 mi
11:56 AM82 °FScattered clouds.18 mph22%29.94 "Hg10 mi
10:56 AM81 °FScattered clouds.17 mph23%29.96 "Hg10 mi
9:56 AM79 °FPassing clouds.16 mph24%29.96 "Hg10 mi
8:56 AM73 °FPassing clouds.12 mph30%29.97 "Hg10 mi
7:56 AM67 °FPassing clouds.9 mph37%29.95 "Hg10 mi
6:56 AM64 °FPassing clouds.7 mph40%29.93 "Hg10 mi
5:56 AM65 °FPassing clouds.3 mph39%29.92 "Hg10 mi
4:56 AM66 °FClear.6 mph36%29.91 "Hg10 mi
3:56 AM66 °FClear.6 mph36%29.91 "Hg10 mi
2:56 AM69 °FClear.12 mph31%29.92 "Hg10 mi
1:56 AM69 °FClear.9 mph32%29.93 "Hg10 mi
12:56 AM69 °FClear.8 mph33%29.93 "Hg10 mi
Weather by CustomWeather, © 2014

See weather overviewHow to use our weather pages